Year,Month,Day,Hour,Minute,Value (Times are PST for temperature in C)
2021,06,29,00,00,28.80
2021,06,29,00,01,28.70
2021,06,29,00,02,28.70
2021,06,29,00,03,28.70
2021,06,29,00,04,28.70
2021,06,29,00,05,28.60
2021,06,29,00,06,28.60
2021,06,29,00,07,28.60
2021,06,29,00,08,28.60
2021,06,29,00,09,28.60
2021,06,29,00,10,28.60
2021,06,29,00,11,28.50
2021,06,29,00,12,28.50
2021,06,29,00,13,28.50
2021,06,29,00,14,28.40
2021,06,29,00,15,28.40
2021,06,29,00,16,28.30
2021,06,29,00,17,28.30
2021,06,29,00,18,28.30
2021,06,29,00,19,28.20
2021,06,29,00,20,28.20
2021,06,29,00,21,28.10
2021,06,29,00,22,28.10
2021,06,29,00,23,28.10
2021,06,29,00,24,28.00
2021,06,29,00,25,28.00
2021,06,29,00,26,27.90
2021,06,29,00,27,27.90
2021,06,29,00,28,27.90
2021,06,29,00,29,27.80
2021,06,29,00,30,27.80
2021,06,29,00,31,27.70
2021,06,29,00,32,27.70
2021,06,29,00,33,27.60
2021,06,29,00,34,27.50
2021,06,29,00,35,27.50
2021,06,29,00,36,27.40
2021,06,29,00,37,27.40
2021,06,29,00,38,27.30
2021,06,29,00,39,27.20
2021,06,29,00,40,27.20
2021,06,29,00,41,27.10
2021,06,29,00,42,27.10
2021,06,29,00,43,27.10
2021,06,29,00,44,27.00
2021,06,29,00,45,27.00
2021,06,29,00,46,26.90
2021,06,29,00,47,26.90
2021,06,29,00,48,26.90
2021,06,29,00,49,26.80
2021,06,29,00,50,26.80
2021,06,29,00,51,26.80
2021,06,29,00,52,26.70
2021,06,29,00,53,26.70
2021,06,29,00,54,26.70
2021,06,29,00,55,26.70
2021,06,29,00,56,26.60
2021,06,29,00,57,26.60
2021,06,29,00,58,26.60
2021,06,29,00,59,26.60
2021,06,29,01,00,26.60
2021,06,29,01,01,26.60
2021,06,29,01,02,26.60
2021,06,29,01,03,26.60
2021,06,29,01,04,26.60
2021,06,29,01,05,26.60
2021,06,29,01,06,26.50
2021,06,29,01,07,26.50
2021,06,29,01,08,26.40
2021,06,29,01,09,26.40
2021,06,29,01,10,26.40
2021,06,29,01,11,26.40
2021,06,29,01,12,26.30
2021,06,29,01,13,26.30
2021,06,29,01,14,26.30
2021,06,29,01,15,26.20
2021,06,29,01,16,26.20
2021,06,29,01,17,26.20
2021,06,29,01,18,26.20
2021,06,29,01,19,26.20
2021,06,29,01,20,26.10
2021,06,29,01,21,26.10
2021,06,29,01,22,26.10
2021,06,29,01,23,26.10
2021,06,29,01,24,26.10
2021,06,29,01,25,26.10
2021,06,29,01,26,26.10
2021,06,29,01,27,26.10
2021,06,29,01,28,26.10
2021,06,29,01,29,26.10
2021,06,29,01,30,26.00
2021,06,29,01,31,26.00
2021,06,29,01,32,26.00
2021,06,29,01,33,25.90
2021,06,29,01,34,25.90
2021,06,29,01,35,25.90
2021,06,29,01,36,25.90
2021,06,29,01,37,25.80
2021,06,29,01,38,25.80
2021,06,29,01,39,25.80
2021,06,29,01,40,25.80
2021,06,29,01,41,25.80
2021,06,29,01,42,25.80
2021,06,29,01,43,25.70
2021,06,29,01,44,25.70
2021,06,29,01,45,25.70
2021,06,29,01,46,25.70
2021,06,29,01,47,25.70
2021,06,29,01,48,25.60
2021,06,29,01,49,25.60
2021,06,29,01,50,25.60
2021,06,29,01,51,25.60
2021,06,29,01,52,25.60
2021,06,29,01,53,25.60
2021,06,29,01,54,25.50
2021,06,29,01,55,25.50
2021,06,29,01,56,25.40
2021,06,29,01,57,25.40
2021,06,29,01,58,25.40
2021,06,29,01,59,25.30
2021,06,29,02,00,25.30
2021,06,29,02,01,25.30
2021,06,29,02,02,25.20
2021,06,29,02,03,25.20
2021,06,29,02,04,25.20
2021,06,29,02,05,25.20
2021,06,29,02,06,25.10
2021,06,29,02,07,25.10
2021,06,29,02,08,25.10
2021,06,29,02,09,25.00
2021,06,29,02,10,25.00
2021,06,29,02,11,25.00
2021,06,29,02,12,24.90
2021,06,29,02,13,24.90
2021,06,29,02,14,24.90
2021,06,29,02,15,24.90
2021,06,29,02,16,24.80
2021,06,29,02,17,24.80
2021,06,29,02,18,24.80
2021,06,29,02,19,24.70
2021,06,29,02,20,24.70
2021,06,29,02,21,24.70
2021,06,29,02,22,24.60
2021,06,29,02,23,24.60
2021,06,29,02,24,24.60
2021,06,29,02,25,24.60
2021,06,29,02,26,24.50
2021,06,29,02,27,24.50
2021,06,29,02,28,24.50
2021,06,29,02,29,24.40
2021,06,29,02,30,24.40
2021,06,29,02,31,24.40
2021,06,29,02,32,24.40
2021,06,29,02,33,24.40
2021,06,29,02,34,24.30
2021,06,29,02,35,24.30
2021,06,29,02,36,24.30
2021,06,29,02,37,24.30
2021,06,29,02,38,24.20
2021,06,29,02,39,24.20
2021,06,29,02,40,24.20
2021,06,29,02,41,24.10
2021,06,29,02,42,24.10
2021,06,29,02,43,24.10
2021,06,29,02,44,24.00
2021,06,29,02,45,24.00
2021,06,29,02,46,24.00
2021,06,29,02,47,23.90
2021,06,29,02,48,23.90
2021,06,29,02,49,23.90
2021,06,29,02,50,23.90
2021,06,29,02,51,23.90
2021,06,29,02,52,23.90
2021,06,29,02,53,23.80
2021,06,29,02,54,23.80
2021,06,29,02,55,23.80
2021,06,29,02,56,23.80
2021,06,29,02,57,23.80
2021,06,29,02,58,23.80
2021,06,29,02,59,23.80
2021,06,29,03,00,23.80
2021,06,29,03,01,23.80
2021,06,29,03,02,23.80
2021,06,29,03,03,23.80
2021,06,29,03,04,23.80
2021,06,29,03,05,23.80
2021,06,29,03,06,23.80
2021,06,29,03,07,23.80
2021,06,29,03,08,23.80
2021,06,29,03,09,23.80
2021,06,29,03,10,23.80
2021,06,29,03,11,23.90
2021,06,29,03,12,23.90
2021,06,29,03,13,23.90
2021,06,29,03,14,24.00
2021,06,29,03,15,24.00
2021,06,29,03,16,24.00
2021,06,29,03,17,24.10
2021,06,29,03,18,24.10
2021,06,29,03,19,24.20
2021,06,29,03,20,24.20
2021,06,29,03,21,24.20
2021,06,29,03,22,24.30
2021,06,29,03,23,24.30
2021,06,29,03,24,24.20
2021,06,29,03,25,24.20
2021,06,29,03,26,24.10
2021,06,29,03,27,24.00
2021,06,29,03,28,24.00
2021,06,29,03,29,23.90
2021,06,29,03,30,23.90
2021,06,29,03,31,23.80
2021,06,29,03,32,23.80
2021,06,29,03,33,23.80
2021,06,29,03,34,23.70
2021,06,29,03,35,23.70
2021,06,29,03,36,23.60
2021,06,29,03,37,23.60
2021,06,29,03,38,23.50
2021,06,29,03,39,23.40
2021,06,29,03,40,23.40
2021,06,29,03,41,23.30
2021,06,29,03,42,23.30
2021,06,29,03,43,23.30
2021,06,29,03,44,23.20
2021,06,29,03,45,23.20
2021,06,29,03,46,23.20
2021,06,29,03,47,23.10
2021,06,29,03,48,23.10
2021,06,29,03,49,23.10
2021,06,29,03,50,23.00
2021,06,29,03,51,22.90
2021,06,29,03,52,22.90
2021,06,29,03,53,22.90
2021,06,29,03,54,22.90
2021,06,29,03,55,22.80
2021,06,29,03,56,22.80
2021,06,29,03,57,22.80
2021,06,29,03,58,22.80
2021,06,29,03,59,22.80
2021,06,29,04,00,22.70
2021,06,29,04,01,22.70
2021,06,29,04,02,22.70
2021,06,29,04,03,22.70
2021,06,29,04,04,22.70
2021,06,29,04,05,22.70
2021,06,29,04,06,22.70
2021,06,29,04,07,22.60
2021,06,29,04,08,22.60
2021,06,29,04,09,22.60
2021,06,29,05,04,22.20
2021,06,29,05,05,22.20
2021,06,29,05,06,22.10
2021,06,29,05,07,22.10
2021,06,29,05,08,22.10
2021,06,29,05,09,22.10
2021,06,29,05,10,22.10
2021,06,29,05,11,22.00
2021,06,29,05,12,22.00
2021,06,29,05,13,22.00
2021,06,29,05,14,21.90
2021,06,29,05,15,21.90
2021,06,29,05,16,21.90
2021,06,29,05,17,21.80
2021,06,29,05,18,21.80
2021,06,29,05,19,21.80
2021,06,29,05,20,21.80
2021,06,29,05,21,21.80
2021,06,29,05,22,21.80
2021,06,29,05,23,21.80
2021,06,29,05,24,21.70
2021,06,29,05,25,21.70
2021,06,29,05,26,21.70
2021,06,29,05,27,21.70
2021,06,29,05,28,21.70
2021,06,29,05,29,21.60
2021,06,29,05,30,21.60
2021,06,29,05,31,21.60
2021,06,29,05,32,21.60
2021,06,29,05,33,21.50
2021,06,29,05,34,21.40
2021,06,29,05,35,21.40
2021,06,29,05,36,21.30
2021,06,29,05,37,21.20
2021,06,29,05,38,21.20
2021,06,29,05,39,21.10
2021,06,29,05,40,21.00
2021,06,29,05,41,20.80
2021,06,29,05,42,20.70
2021,06,29,05,43,20.60
2021,06,29,05,44,20.50
2021,06,29,05,45,20.40
2021,06,29,05,46,20.20
2021,06,29,05,47,20.00
2021,06,29,05,48,19.80
2021,06,29,05,49,19.60
2021,06,29,05,50,19.40
2021,06,29,05,51,19.30
2021,06,29,05,52,19.10
2021,06,29,05,53,18.90
2021,06,29,05,54,18.80
2021,06,29,05,55,18.50
2021,06,29,05,56,18.40
2021,06,29,05,57,18.20
2021,06,29,05,58,18.10
2021,06,29,05,59,18.00
2021,06,29,06,00,17.90
2021,06,29,06,01,17.80
2021,06,29,06,02,17.70
2021,06,29,06,03,17.60
2021,06,29,06,04,17.50
2021,06,29,06,05,17.50
2021,06,29,06,06,17.40
2021,06,29,06,07,17.30
2021,06,29,06,08,17.30
2021,06,29,06,09,17.30
2021,06,29,06,10,17.30
2021,06,29,06,11,17.30
2021,06,29,06,12,17.20
2021,06,29,06,13,17.20
2021,06,29,06,14,17.20
2021,06,29,06,15,17.20
2021,06,29,06,16,17.20
2021,06,29,06,17,17.20
2021,06,29,06,18,17.30
2021,06,29,06,19,17.30
2021,06,29,06,20,17.30
2021,06,29,06,21,17.30
2021,06,29,06,22,17.30
2021,06,29,06,23,17.20
2021,06,29,06,24,17.20
2021,06,29,06,25,17.20
2021,06,29,06,26,17.20
2021,06,29,06,27,17.20
2021,06,29,06,28,17.20
2021,06,29,06,29,17.30
2021,06,29,06,30,17.30
2021,06,29,06,31,17.30
2021,06,29,06,32,17.30
2021,06,29,06,33,17.30
2021,06,29,06,34,17.40
2021,06,29,06,35,17.40
2021,06,29,06,36,17.40
2021,06,29,06,37,17.40
2021,06,29,06,38,17.40
2021,06,29,06,39,17.50
2021,06,29,06,40,17.50
2021,06,29,06,41,17.50
2021,06,29,06,42,17.50
2021,06,29,06,43,17.60
2021,06,29,06,44,17.60
2021,06,29,06,45,17.60
2021,06,29,06,46,17.60
2021,06,29,06,47,17.60
2021,06,29,06,48,17.60
2021,06,29,06,49,17.60
2021,06,29,06,50,17.50
2021,06,29,06,51,17.50
2021,06,29,06,52,17.40
2021,06,29,06,53,17.40
2021,06,29,06,54,17.40
2021,06,29,06,55,17.40
2021,06,29,06,56,17.40
2021,06,29,06,57,17.30
2021,06,29,06,58,17.30
2021,06,29,06,59,17.30
2021,06,29,07,00,17.30
2021,06,29,07,01,17.30
2021,06,29,07,02,17.30
2021,06,29,07,03,17.30
2021,06,29,07,04,17.30
2021,06,29,07,05,17.30
2021,06,29,07,06,17.30
2021,06,29,07,07,17.30
2021,06,29,07,08,17.30
2021,06,29,07,09,17.30
2021,06,29,07,10,17.30
2021,06,29,07,11,17.40
2021,06,29,07,12,17.40
2021,06,29,07,13,17.50
2021,06,29,07,14,17.60
2021,06,29,07,15,17.60
2021,06,29,07,16,17.60
2021,06,29,07,17,17.60
2021,06,29,07,18,17.70
2021,06,29,07,19,17.70
2021,06,29,07,20,17.70
2021,06,29,07,21,17.70
2021,06,29,07,22,17.80
2021,06,29,07,23,17.80
2021,06,29,07,24,17.90
2021,06,29,07,25,17.90
2021,06,29,07,26,18.00
2021,06,29,07,27,18.10
2021,06,29,07,28,18.10
2021,06,29,07,29,18.20
2021,06,29,07,30,18.20
2021,06,29,07,31,18.30
2021,06,29,07,32,18.30
2021,06,29,07,33,18.40
2021,06,29,07,34,18.40
2021,06,29,07,35,18.40
2021,06,29,07,36,18.30
2021,06,29,07,37,18.30
2021,06,29,07,38,18.30
2021,06,29,07,39,18.30
2021,06,29,07,40,18.30
2021,06,29,07,41,18.30
2021,06,29,07,42,18.20
2021,06,29,07,43,18.20
2021,06,29,07,44,18.20
2021,06,29,07,45,18.20
2021,06,29,07,46,18.30
2021,06,29,07,47,18.30
2021,06,29,07,48,18.30
2021,06,29,07,49,18.40
2021,06,29,07,50,18.50
2021,06,29,07,51,18.60
2021,06,29,07,52,18.70
2021,06,29,07,53,18.70
2021,06,29,07,54,18.80
2021,06,29,07,55,18.80
2021,06,29,07,56,18.80
2021,06,29,07,57,18.70
2021,06,29,07,58,18.60
2021,06,29,07,59,18.60
2021,06,29,08,00,18.50
2021,06,29,08,01,18.40
2021,06,29,08,02,18.40
2021,06,29,08,03,18.30
2021,06,29,08,04,18.30
2021,06,29,08,05,18.20
2021,06,29,08,06,18.20
2021,06,29,08,07,18.10
2021,06,29,08,08,18.10
2021,06,29,08,09,18.00
2021,06,29,08,10,17.90
2021,06,29,08,11,17.80
2021,06,29,08,12,17.70
2021,06,29,08,13,17.70
2021,06,29,08,14,17.70
2021,06,29,08,15,17.70
2021,06,29,08,16,17.70
2021,06,29,08,17,17.80
2021,06,29,08,18,17.80
2021,06,29,08,19,17.80
2021,06,29,08,20,17.90
2021,06,29,08,21,18.00
2021,06,29,08,22,18.10
2021,06,29,08,23,18.10
2021,06,29,08,24,18.20
2021,06,29,08,25,18.30
2021,06,29,08,26,18.30
2021,06,29,08,27,18.30
2021,06,29,08,28,18.40
2021,06,29,08,29,18.40
2021,06,29,08,30,18.40
2021,06,29,08,31,18.50
2021,06,29,08,32,18.50
2021,06,29,08,33,18.50
2021,06,29,08,34,18.60
2021,06,29,08,35,18.60
2021,06,29,08,36,18.70
2021,06,29,08,37,18.80
2021,06,29,08,38,18.80
2021,06,29,08,39,18.90
2021,06,29,08,40,19.00
2021,06,29,08,41,19.00
2021,06,29,08,42,19.10
2021,06,29,08,43,19.10
2021,06,29,08,44,19.10
2021,06,29,08,45,19.20
2021,06,29,08,46,19.20
2021,06,29,08,47,19.30
2021,06,29,08,48,19.40
2021,06,29,08,49,19.50
2021,06,29,08,50,19.60
2021,06,29,08,51,19.70
2021,06,29,08,52,19.80
2021,06,29,08,53,20.00
2021,06,29,08,54,20.10
2021,06,29,08,55,20.20
2021,06,29,08,56,20.30
2021,06,29,08,57,20.40
2021,06,29,08,58,20.50
2021,06,29,08,59,20.60
2021,06,29,09,00,20.70
2021,06,29,09,01,20.80
2021,06,29,09,02,21.00
2021,06,29,09,03,21.10
2021,06,29,09,04,21.20
2021,06,29,09,05,21.40
2021,06,29,09,06,21.60
2021,06,29,09,07,21.80
2021,06,29,09,08,21.90
2021,06,29,09,09,22.00
2021,06,29,09,10,22.00
2021,06,29,09,11,22.10
2021,06,29,09,12,22.20
2021,06,29,09,13,22.20
2021,06,29,09,14,22.30
2021,06,29,09,15,22.30
2021,06,29,09,16,22.40
2021,06,29,09,17,22.40
2021,06,29,09,18,22.40
2021,06,29,09,19,22.40
2021,06,29,09,20,22.40
2021,06,29,09,21,22.40
2021,06,29,09,22,22.40
2021,06,29,09,23,22.40
2021,06,29,09,24,22.50
2021,06,29,09,25,22.50
2021,06,29,09,26,22.60
2021,06,29,09,27,22.60
2021,06,29,09,28,22.70
2021,06,29,09,29,22.80
2021,06,29,09,30,22.90
2021,06,29,09,31,23.10
2021,06,29,09,32,23.20
2021,06,29,09,33,23.20
2021,06,29,09,34,23.30
2021,06,29,09,35,23.30
2021,06,29,09,36,23.30
2021,06,29,09,37,23.40
2021,06,29,09,38,23.50
2021,06,29,09,39,23.60
2021,06,29,09,40,23.70
2021,06,29,09,41,23.70
2021,06,29,09,42,23.60
2021,06,29,09,43,23.60
2021,06,29,09,44,23.70
2021,06,29,09,45,23.70
2021,06,29,09,46,23.80
2021,06,29,09,47,23.80
2021,06,29,09,48,23.90
2021,06,29,09,49,24.00
2021,06,29,09,50,24.10
2021,06,29,09,51,24.30
2021,06,29,09,52,24.40
2021,06,29,09,53,24.50
2021,06,29,09,54,24.60
2021,06,29,09,55,24.70
2021,06,29,09,56,24.80
2021,06,29,09,57,24.90
2021,06,29,09,58,25.00
2021,06,29,09,59,25.10
2021,06,29,10,00,25.30
2021,06,29,10,01,25.40
2021,06,29,10,02,25.50
2021,06,29,10,03,25.60
2021,06,29,10,04,25.60
2021,06,29,10,05,25.70
2021,06,29,10,06,25.70
2021,06,29,10,07,25.70
2021,06,29,10,08,25.70
2021,06,29,10,09,25.80
2021,06,29,10,10,25.80
2021,06,29,10,11,25.80
2021,06,29,10,12,25.70
2021,06,29,10,13,25.70
2021,06,29,10,14,25.70
2021,06,29,10,15,25.70
2021,06,29,10,16,25.70
2021,06,29,10,17,25.70
2021,06,29,10,18,25.70
2021,06,29,10,19,25.80
2021,06,29,10,20,25.80
2021,06,29,10,21,25.90
2021,06,29,10,22,26.00
2021,06,29,10,23,26.10
2021,06,29,10,24,26.10
2021,06,29,10,25,26.10
2021,06,29,10,26,26.00
2021,06,29,10,27,26.00
2021,06,29,10,28,25.90
2021,06,29,10,29,25.80
2021,06,29,10,30,25.80
2021,06,29,10,31,25.80
2021,06,29,10,32,25.70
2021,06,29,10,33,25.70
2021,06,29,10,34,25.60
2021,06,29,10,35,25.50
2021,06,29,10,36,25.40
2021,06,29,10,37,25.40
2021,06,29,10,38,25.30
2021,06,29,10,39,25.30
2021,06,29,10,40,25.30
2021,06,29,10,41,25.30
2021,06,29,10,42,25.30
2021,06,29,10,43,25.30
2021,06,29,10,44,25.30
2021,06,29,10,45,25.40
2021,06,29,10,46,25.40
2021,06,29,10,47,25.50
2021,06,29,10,48,25.60
2021,06,29,10,49,25.70
2021,06,29,10,50,25.70
2021,06,29,10,51,25.80
2021,06,29,10,52,25.80
2021,06,29,10,53,25.90
2021,06,29,10,54,25.90
2021,06,29,10,55,25.90
2021,06,29,10,56,25.90
2021,06,29,10,57,25.80
2021,06,29,10,58,25.80
2021,06,29,10,59,25.80
2021,06,29,11,00,25.80
2021,06,29,11,01,25.80
2021,06,29,11,02,25.80
2021,06,29,11,03,25.80
2021,06,29,11,04,25.80
2021,06,29,11,05,25.80
2021,06,29,11,06,25.80
2021,06,29,11,07,25.80
2021,06,29,11,08,25.80
2021,06,29,11,09,25.80
2021,06,29,11,10,25.80
2021,06,29,11,11,25.90
2021,06,29,11,12,26.00
2021,06,29,11,13,26.10
2021,06,29,11,14,26.10
2021,06,29,11,15,26.10
2021,06,29,11,16,26.10
2021,06,29,11,17,26.20
2021,06,29,11,18,26.30
2021,06,29,11,19,26.40
2021,06,29,11,20,26.50
2021,06,29,11,21,26.50
2021,06,29,11,22,26.60
2021,06,29,11,23,26.60
2021,06,29,11,24,26.70
2021,06,29,11,25,26.70
2021,06,29,11,26,26.70
2021,06,29,11,27,26.70
2021,06,29,11,28,26.70
2021,06,29,11,29,26.70
2021,06,29,11,30,26.70
2021,06,29,11,31,26.70
2021,06,29,11,32,26.70
2021,06,29,11,33,26.70
2021,06,29,11,34,26.80
2021,06,29,11,35,26.80
2021,06,29,11,36,26.80
2021,06,29,11,37,26.80
2021,06,29,11,38,26.70
2021,06,29,11,39,26.60
2021,06,29,11,40,26.50
2021,06,29,11,41,26.50
2021,06,29,11,42,26.40
2021,06,29,11,43,26.40
2021,06,29,11,44,26.40
2021,06,29,11,45,26.40
2021,06,29,11,46,26.40
2021,06,29,11,47,26.40
2021,06,29,11,48,26.40
2021,06,29,11,49,26.40
2021,06,29,11,50,26.40
2021,06,29,11,51,26.30
2021,06,29,11,52,26.30
2021,06,29,11,53,26.30
2021,06,29,11,54,26.40
2021,06,29,11,55,26.40
2021,06,29,11,56,26.50
2021,06,29,11,57,26.50
2021,06,29,11,58,26.60
2021,06,29,11,59,26.60
2021,06,29,12,00,26.60
2021,06,29,12,01,26.70
2021,06,29,12,02,26.80
2021,06,29,12,03,26.90
2021,06,29,12,04,26.90
2021,06,29,12,05,26.90
2021,06,29,12,06,26.90
2021,06,29,12,07,26.90
2021,06,29,12,08,27.00
2021,06,29,12,09,27.10
2021,06,29,12,10,27.20
2021,06,29,12,11,27.20
2021,06,29,12,12,27.30
2021,06,29,12,13,27.30
2021,06,29,12,14,27.40
2021,06,29,12,15,27.40
2021,06,29,12,16,27.30
2021,06,29,12,17,27.30
2021,06,29,12,18,27.30
2021,06,29,12,19,27.40
2021,06,29,12,20,27.50
2021,06,29,12,21,27.60
2021,06,29,12,22,27.60
2021,06,29,12,23,27.60
2021,06,29,12,24,27.60
2021,06,29,12,25,27.50
2021,06,29,12,26,27.40
2021,06,29,12,27,27.40
2021,06,29,12,28,27.30
2021,06,29,12,29,27.30
2021,06,29,12,30,27.40
2021,06,29,12,31,27.50
2021,06,29,12,32,27.60
2021,06,29,12,33,27.70
2021,06,29,12,34,27.70
2021,06,29,12,35,27.90
2021,06,29,12,36,28.00
2021,06,29,12,37,28.00
2021,06,29,12,38,28.00
2021,06,29,12,39,27.90
2021,06,29,12,40,27.90
2021,06,29,12,41,27.90
2021,06,29,12,42,28.00
2021,06,29,12,43,28.00
2021,06,29,12,44,27.90
2021,06,29,12,45,27.90
2021,06,29,12,46,28.00
2021,06,29,12,47,28.10
2021,06,29,12,48,28.20
2021,06,29,12,49,28.20
2021,06,29,12,50,28.30
2021,06,29,12,51,28.30
2021,06,29,12,52,28.30
2021,06,29,12,53,28.20
2021,06,29,12,54,28.20
2021,06,29,12,55,28.10
2021,06,29,12,56,28.10
2021,06,29,12,57,28.10
2021,06,29,12,58,28.20
2021,06,29,12,59,28.20
2021,06,29,13,00,28.30
2021,06,29,13,01,28.40
2021,06,29,13,02,28.60
2021,06,29,13,03,28.70
2021,06,29,13,04,28.70
2021,06,29,13,05,28.60
2021,06,29,13,06,28.60
2021,06,29,13,07,28.50
2021,06,29,13,08,28.40
2021,06,29,13,09,28.30
2021,06,29,13,10,28.40
2021,06,29,13,11,28.40
2021,06,29,13,12,28.40
2021,06,29,13,13,28.40
2021,06,29,13,14,28.40
2021,06,29,13,15,28.40
2021,06,29,13,16,28.50
2021,06,29,13,17,28.60
2021,06,29,13,18,28.80
2021,06,29,13,19,28.80
2021,06,29,13,20,28.90
2021,06,29,13,21,28.90
2021,06,29,13,22,28.90
2021,06,29,13,23,28.80
2021,06,29,13,24,28.80
2021,06,29,13,25,28.80
2021,06,29,13,26,28.90
2021,06,29,13,27,28.90
2021,06,29,13,28,28.80
2021,06,29,13,29,28.80
2021,06,29,13,30,28.70
2021,06,29,13,31,28.70
2021,06,29,13,32,28.70
2021,06,29,13,33,28.70
2021,06,29,13,34,28.80
2021,06,29,13,35,28.90
2021,06,29,13,36,29.00
2021,06,29,13,37,29.10
2021,06,29,13,38,29.20
2021,06,29,13,39,29.30
2021,06,29,13,40,29.40
2021,06,29,13,41,29.40
2021,06,29,13,42,29.50
2021,06,29,13,43,29.50
2021,06,29,13,44,29.60
2021,06,29,13,45,29.60
2021,06,29,13,46,29.70
2021,06,29,13,47,29.80
2021,06,29,13,48,29.80
2021,06,29,13,49,29.80
2021,06,29,13,50,29.70
2021,06,29,13,51,29.80
2021,06,29,13,52,29.80
2021,06,29,13,53,29.90
2021,06,29,13,54,30.00
2021,06,29,13,55,30.00
2021,06,29,13,56,29.90
2021,06,29,13,57,29.90
2021,06,29,13,58,30.00
2021,06,29,13,59,30.00
2021,06,29,14,00,30.00
2021,06,29,14,01,29.90
2021,06,29,14,02,29.80
2021,06,29,14,03,29.70
2021,06,29,14,04,29.60
2021,06,29,14,05,29.50
2021,06,29,14,06,29.40
2021,06,29,14,07,29.30
2021,06,29,14,08,29.30
2021,06,29,14,09,29.30
2021,06,29,14,10,29.30
2021,06,29,14,11,29.20
2021,06,29,14,12,29.20
2021,06,29,14,13,29.20
2021,06,29,14,14,29.20
2021,06,29,14,15,29.30
2021,06,29,14,16,29.30
2021,06,29,14,17,29.30
2021,06,29,14,18,29.30
2021,06,29,14,19,29.30
2021,06,29,14,20,29.30
2021,06,29,14,21,29.40
2021,06,29,14,22,29.40
2021,06,29,14,23,29.30
2021,06,29,14,24,29.40
2021,06,29,14,25,29.50
2021,06,29,14,26,29.60
2021,06,29,14,27,29.60
2021,06,29,14,28,29.60
2021,06,29,14,29,29.60
2021,06,29,14,30,29.60
2021,06,29,14,31,29.60
2021,06,29,14,32,29.60
2021,06,29,14,33,29.60
2021,06,29,14,34,29.60
2021,06,29,14,35,29.60
2021,06,29,14,36,29.60
2021,06,29,14,37,29.60
2021,06,29,14,38,29.60
2021,06,29,14,39,29.60
2021,06,29,14,40,29.60
2021,06,29,14,41,29.60
2021,06,29,14,42,29.50
2021,06,29,14,43,29.40
2021,06,29,14,44,29.40
2021,06,29,14,45,29.40
2021,06,29,14,46,29.50
2021,06,29,14,47,29.50
2021,06,29,14,48,29.50
2021,06,29,14,49,29.50
2021,06,29,14,50,29.40
2021,06,29,14,51,29.40
2021,06,29,14,52,29.40
2021,06,29,14,53,29.30
2021,06,29,14,54,29.30
2021,06,29,14,55,29.40
2021,06,29,14,56,29.50
2021,06,29,14,57,29.60
2021,06,29,14,58,29.60
2021,06,29,14,59,29.60
2021,06,29,15,00,29.60
2021,06,29,15,01,29.60
2021,06,29,15,02,29.60
2021,06,29,15,03,29.70
2021,06,29,15,04,29.70
2021,06,29,15,05,29.80
2021,06,29,15,06,29.80
2021,06,29,15,07,30.00
2021,06,29,15,08,30.10
2021,06,29,15,09,30.20
2021,06,29,15,10,30.20
2021,06,29,15,11,30.20
2021,06,29,15,12,30.20
2021,06,29,15,13,30.10
2021,06,29,15,14,30.10
2021,06,29,15,15,30.00
2021,06,29,15,16,30.00
2021,06,29,15,17,29.90
2021,06,29,15,18,29.90
2021,06,29,15,19,29.80
2021,06,29,15,20,29.80
2021,06,29,15,21,29.90
2021,06,29,15,22,29.90
2021,06,29,15,23,30.00
2021,06,29,15,24,30.00
2021,06,29,15,25,30.00
2021,06,29,15,26,29.90
2021,06,29,15,27,29.90
2021,06,29,15,28,29.90
2021,06,29,15,29,29.90
2021,06,29,15,30,29.90
2021,06,29,15,31,29.90
2021,06,29,15,32,29.90
2021,06,29,15,33,29.90
2021,06,29,15,34,29.90
2021,06,29,15,35,29.90
2021,06,29,15,36,29.80
2021,06,29,15,37,29.80
2021,06,29,15,38,29.80
2021,06,29,15,39,29.80
2021,06,29,15,40,29.70
2021,06,29,15,41,29.70
2021,06,29,15,42,29.80
2021,06,29,15,43,29.90
2021,06,29,15,44,29.90
2021,06,29,15,45,29.80
2021,06,29,15,46,29.80
2021,06,29,15,47,29.80
2021,06,29,15,48,29.80
2021,06,29,15,49,29.80
2021,06,29,15,50,29.80
2021,06,29,15,51,29.80
2021,06,29,15,52,29.90
2021,06,29,15,53,29.90
2021,06,29,15,54,29.90
2021,06,29,15,55,29.90
2021,06,29,15,56,29.90
2021,06,29,15,57,29.80
2021,06,29,15,58,29.70
2021,06,29,15,59,29.70
2021,06,29,16,00,29.70
2021,06,29,16,01,29.70
2021,06,29,16,02,29.70
2021,06,29,16,03,29.70
2021,06,29,16,04,29.70
2021,06,29,16,05,29.80
2021,06,29,16,06,29.80
2021,06,29,16,07,29.90
2021,06,29,16,08,30.10
2021,06,29,16,09,30.10
2021,06,29,16,10,30.10
2021,06,29,16,11,30.00
2021,06,29,16,12,29.90
2021,06,29,16,13,29.80
2021,06,29,16,14,29.80
2021,06,29,16,15,29.70
2021,06,29,16,16,29.70
2021,06,29,16,17,29.70
2021,06,29,16,18,29.70
2021,06,29,16,19,29.80
2021,06,29,16,20,29.70
2021,06,29,16,21,29.60
2021,06,29,16,22,29.60
2021,06,29,16,23,29.60
2021,06,29,16,24,29.50
2021,06,29,16,25,29.40
2021,06,29,16,26,29.40
2021,06,29,16,27,29.30
2021,06,29,16,28,29.20
2021,06,29,16,29,29.10
2021,06,29,16,30,29.10
2021,06,29,16,31,29.10
2021,06,29,16,32,29.10
2021,06,29,16,33,29.00
2021,06,29,16,34,29.00
2021,06,29,16,35,29.20
2021,06,29,16,36,29.30
2021,06,29,16,37,29.40
2021,06,29,16,38,29.40
2021,06,29,16,39,29.50
2021,06,29,16,40,29.50
2021,06,29,16,41,29.50
2021,06,29,16,42,29.50
2021,06,29,16,43,29.50
2021,06,29,16,44,29.50
2021,06,29,16,45,29.60
2021,06,29,16,46,29.60
2021,06,29,16,47,29.70
2021,06,29,16,48,29.70
2021,06,29,16,49,29.70
2021,06,29,16,50,29.70
2021,06,29,16,51,29.70
2021,06,29,16,52,29.60
2021,06,29,16,53,29.50
2021,06,29,16,54,29.40
2021,06,29,16,55,29.30
2021,06,29,16,56,29.30
2021,06,29,16,57,29.30
2021,06,29,16,58,29.20
2021,06,29,16,59,29.10
2021,06,29,17,00,29.10
2021,06,29,17,01,29.10
2021,06,29,17,02,29.00
2021,06,29,17,03,29.00
2021,06,29,17,04,29.00
2021,06,29,17,05,28.90
2021,06,29,17,06,28.90
2021,06,29,17,07,28.90
2021,06,29,17,08,29.00
2021,06,29,17,09,29.00
2021,06,29,17,10,29.10
2021,06,29,17,11,29.10
2021,06,29,17,12,29.10
2021,06,29,17,13,29.10
2021,06,29,17,14,29.10
2021,06,29,17,15,29.20
2021,06,29,17,16,29.10
2021,06,29,17,17,29.10
2021,06,29,17,18,29.10
2021,06,29,17,19,29.10
2021,06,29,17,20,29.10
2021,06,29,17,21,29.20
2021,06,29,17,22,29.20
2021,06,29,17,23,29.20
2021,06,29,17,24,29.20
2021,06,29,17,25,29.10
2021,06,29,17,26,29.10
2021,06,29,17,27,29.10
2021,06,29,17,28,29.10
2021,06,29,17,29,29.10
2021,06,29,17,30,29.10
2021,06,29,17,31,29.10
2021,06,29,17,32,29.20
2021,06,29,17,33,29.20
2021,06,29,17,34,29.20
2021,06,29,17,35,29.20
2021,06,29,17,36,29.00
2021,06,29,17,37,28.90
2021,06,29,17,38,28.80
2021,06,29,17,39,28.70
2021,06,29,17,40,28.60
2021,06,29,17,41,28.70
2021,06,29,17,42,28.80
2021,06,29,17,43,28.90
2021,06,29,17,44,29.00
2021,06,29,17,45,29.20
2021,06,29,17,46,29.30
2021,06,29,17,47,29.30
2021,06,29,17,48,29.30
2021,06,29,17,49,29.30
2021,06,29,17,50,29.40
2021,06,29,17,51,29.40
2021,06,29,17,52,29.30
2021,06,29,17,53,29.30
2021,06,29,17,54,29.20
2021,06,29,17,55,29.20
2021,06,29,17,56,29.20
2021,06,29,17,57,29.20
2021,06,29,17,58,29.20
2021,06,29,17,59,29.20
2021,06,29,18,00,29.20
2021,06,29,18,01,29.20
2021,06,29,18,02,29.20
2021,06,29,18,03,29.30
2021,06,29,18,04,29.30
2021,06,29,18,05,29.30
2021,06,29,18,06,29.30
2021,06,29,18,07,29.30
2021,06,29,18,08,29.30
2021,06,29,18,09,29.30
2021,06,29,18,10,29.30
2021,06,29,18,11,29.30
2021,06,29,18,12,29.30
2021,06,29,18,13,29.30